Regional Weather Roundup
Issued by NWS

Home | Current Version | Previous Version | Graphics & Text | Print | Product List | Glossary On
Versions: 1 2 3 4 5 6 7 8 9 10 11 12 13 14 15 16 17 18 19 20 21 22 23 24 25 26 27 28 29 30 31 32 33 34 35 36 37 38 39 40 41 42 43 44 45 46 47 48 49 50
000
ASUS45 KBOI 290910
RWRID

IDAHO REGIONAL WEATHER ROUNDUP
NATIONAL WEATHER SERVICE BOISE ID
300 AM MDT SAT AUG 29 2015

NOTE: "FAIR" INDICATES FEW OR NO CLOUDS BELOW 12000 FEET
WITH NO SIGNIFICANT WEATHER AND/OR OBSTRUCTIONS TO VISIBILITY

IDZ012-014-291000-
SOUTHWEST IDAHO


CITY           SKY/WX    TMP DP  RH WIND       PRES   REMARKS
BOISE          CLOUDY    79  40  24 S10       29.81R
CALDWELL       CLOUDY    68  45  42 SE5       29.81S
MOUNTAIN HOME  CLOUDY    72  42  33 E9        29.85R
$$

IDZ016-017-291000-
SOUTHCENTRAL IDAHO


CITY           SKY/WX    TMP DP  RH WIND       PRES   REMARKS
JEROME         CLOUDY    70  42  36 E6        29.96F
TWIN FALLS     MOCLDY    68  40  35 SE9       29.97F
$$

IDZ019>023-291000-
SOUTHEAST IDAHO


CITY           SKY/WX    TMP DP  RH WIND       PRES   REMARKS
IDAHO FALLS    MOCLDY    58  51  78 NW3       30.06F
POCATELLO      CLEAR     76  38  25 NE8       30.02F
REXBURG        PTCLDY    60  43  53 N3        30.08F
$$

IDZ006-010-011-018-031-032-291000-
CENTRAL IDAHO MOUNTAINS


CITY           SKY/WX    TMP DP  RH WIND       PRES   REMARKS
MCCALL         CLOUDY    59  45  59 CALM      29.96F
HAILEY         CLOUDY    64  45  48 NW5       30.10S
STANLEY          N/A     60  37  42 S7        30.16F
SALMON         CLOUDY    63  48  59 CALM      30.00F
CHALLIS        CLOUDY    68  40  35 W8        30.07F
$$

IDZ002-004-006-007-026-291000-
NORTHERN IDAHO


CITY           SKY/WX    TMP DP  RH WIND       PRES   REMARKS
LEWISTON       CLOUDY    73  46  38 SE7       29.69F HAZE
LOWELL           N/A     64  53  67 NW3       29.81F
COEUR D`ALENE  CLOUDY    66  46  48 NE8       29.80F
MULLAN PASS    MOCLDY    62  34  35 S6        30.04F HAZE
$$


USA.gov is the U.S. government's official web portal to all federal, state and local government web resources and services.